CW5020 Weather Reports


Display with metric or nautical units.
time (UTC)temp
F
wind
direction
speed
MPH
gust
MPH
rain 1hr
in
rain 24hr
in
rain mn
in
humidity
%
barometer
mb
20260901133007 78 257 0.0 0.0 0.00 0.09 0.00 84 1014.9
20260901132504 77 257 0.0 0.0 0.00 0.09 0.00 84 1015.0
20260901132004 77 257 0.0 1.0 0.00 0.09 0.00 83 1015.0
20260901131503 77 257 0.0 2.0 0.00 0.09 0.00 84 1015.1
20260901131006 77 257 0.0 3.0 0.00 0.09 0.00 84 1015.0
20260901130503 77 258 0.0 3.0 0.00 0.09 0.00 85 1015.1
20260901130004 77 242 0.0 0.0 0.00 0.23 0.00 85 1015.2
20260901125004 77 242 0.0 0.0 0.00 0.23 0.00 84 1015.2
20260901124505 77 242 0.0 0.0 0.00 0.23 0.00 85 1015.2
20260901124004 77 242 0.0 1.0 0.00 0.23 0.00 85 1015.0
20260901123503 77 242 0.0 1.0 0.00 0.23 0.00 85 1015.1
20260901123004 76 242 0.0 1.0 0.00 0.23 0.00 85 1015.0
20260901122503 76 242 0.0 0.0 0.00 0.23 0.00 85 1015.1
20260901122004 76 242 0.0 0.0 0.00 0.23 0.00 85 1014.9
20260901121503 76 242 0.0 0.0 0.00 0.23 0.00 85 1014.9
20260901121003 76 242 0.0 0.0 0.00 0.23 0.00 85 1014.8
20260901120502 76 242 0.0 0.0 0.00 0.23 0.00 85 1014.7
20260901120007 76 242 0.0 0.0 0.00 0.23 0.00 85 1014.7
20260901115503 76 242 0.0 0.0 0.00 0.23 0.00 85 1014.6
20260901115004 76 242 0.0 0.0 0.00 0.23 0.00 85 1014.5
20260901114503 76 242 0.0 0.0 0.00 0.23 0.00 85 1014.4
20260901114004 76 242 0.0 0.0 0.00 0.23 0.00 85 1014.4
20260901113503 76 242 0.0 0.0 0.00 0.23 0.00 85 1014.4
20260901113003 76 242 0.0 0.0 0.00 0.23 0.00 85 1014.4
20260901112503 76 242 0.0 1.0 0.00 0.23 0.00 85 1014.3
20260901111502 76 247 0.0 0.0 0.00 0.23 0.00 85 1014.2
20260901111004 76 247 0.0 0.0 0.00 0.23 0.00 85 1014.1
20260901110503 76 244 0.0 1.0 0.00 0.23 0.00 84 1014.1
20260901110007 76 244 0.0 1.0 0.00 0.23 0.00 84 1014.0
20260901105004 76 246 0.0 1.0 0.00 0.23 0.00 84 1014.0
20260901104503 76 246 0.0 1.0 0.00 0.23 0.00 84 1014.1
20260901104004 77 246 0.0 2.0 0.00 0.23 0.00 84 1014.1
20260901103503 77 246 0.0 2.0 0.00 0.23 0.00 83 1014.1
20260901103007 77 246 0.0 0.0 0.00 0.23 0.00 83 1014.0
20260901102504 77 246 0.0 1.0 0.00 0.23 0.00 83 1013.9
20260901102004 77 246 0.0 1.0 0.00 0.23 0.00 83 1014.0
20260901101503 77 246 0.0 1.0 0.00 0.23 0.00 83 1014.0
20260901101004 77 245 0.0 0.0 0.00 0.23 0.00 83 1014.0
20260901100503 77 262 0.0 0.0 0.00 0.23 0.00 83 1014.0
20260901095003 77 240 0.0 1.0 0.00 0.23 0.00 82 1013.9
20260901094503 77 240 0.0 1.0 0.00 0.23 0.00 82 1013.9
20260901094003 77 240 0.0 1.0 0.00 0.23 0.00 82 1013.8
20260901093503 77 240 0.0 1.0 0.00 0.23 0.00 82 1013.9
20260901093003 77 240 0.0 1.0 0.00 0.23 0.00 82 1013.8
20260901092004 77 244 0.0 2.0 0.00 0.23 0.00 82 1013.9
20260901091005 77 301 0.0 2.0 0.00 0.23 0.00 82 1013.9
20260901090501 77 236 0.0 1.0 0.00 0.23 0.00 82 1013.7
20260901090004 77 237 0.0 1.0 0.00 0.23 0.00 82 1013.7
20260901085004 77 261 0.0 1.0 0.00 0.23 0.00 82 1013.7
20260901084503 77 261 0.0 1.0 0.00 0.23 0.00 82 1013.7
20260901084004 77 263 0.0 1.0 0.00 0.23 0.00 82 1013.7
20260901083502 77 263 0.0 1.0 0.00 0.23 0.00 82 1013.8
20260901083004 77 270 0.0 4.0 0.00 0.23 0.00 82 1013.7
20260901082504 77 280 0.0 4.0 0.00 0.23 0.00 82 1013.6
20260901082004 77 254 0.0 2.0 0.00 0.23 0.00 81 1013.7
20260901081503 78 254 0.0 2.0 0.00 0.23 0.00 82 1013.8
20260901081003 78 284 0.0 2.0 0.00 0.23 0.00 81 1013.7
20260901080004 78 289 0.0 2.0 0.00 0.23 0.00 81 1013.7
20260901075503 78 302 0.0 2.0 0.00 0.23 0.00 81 1013.6
20260901075004 78 249 0.0 0.0 0.00 0.23 0.00 81 1013.7
20260901074503 78 258 0.0 1.0 0.00 0.23 0.00 81 1013.6
20260901074004 78 258 0.0 1.0 0.00 0.23 0.00 81 1013.7
20260901073503 78 240 0.0 1.0 0.00 0.23 0.00 81 1013.7
20260901073004 78 240 0.0 3.0 0.00 0.23 0.00 81 1013.7
20260901072502 78 240 0.0 3.0 0.00 0.23 0.00 81 1013.6
20260901072003 78 274 0.0 2.0 0.00 0.23 0.00 81 1013.6
20260901071506 78 275 0.0 2.0 0.00 0.23 0.00 81 1013.7
20260901070003 78 259 0.0 1.0 0.00 0.23 0.00 81 1013.5
20260901065004 78 257 0.0 3.0 0.00 0.23 0.00 81 1013.6
20260901064501 78 248 0.0 3.0 0.00 0.23 0.00 81 1013.5
20260901063503 78 313 0.0 2.0 0.00 0.23 0.00 81 1013.6
20260901063004 78 313 0.0 2.0 0.00 0.23 0.00 81 1013.5
20260901062003 78 244 0.0 1.0 0.00 0.23 0.00 82 1013.5
20260901061500 78 244 0.0 0.0 0.00 0.23 0.00 82 1013.4
20260901060008 78 196 0.0 0.0 0.00 0.23 0.00 81 1013.4
20260901055503 78 196 0.0 0.0 0.00 0.23 0.00 81 1013.5
20260901055004 78 196 0.0 0.0 0.00 0.23 0.00 81 1013.6
20260901054504 78 196 0.0 0.0 0.00 0.23 0.00 81 1013.6
20260901054005 79 169 0.0 0.0 0.00 0.23 0.00 81 1013.6
20260901053503 79 169 0.0 1.0 0.00 0.23 0.00 81 1013.6
20260901053007 79 169 0.0 3.0 0.00 0.23 0.00 81 1013.6
20260901052504 79 255 0.0 3.0 0.00 0.23 0.00 80 1013.6
20260901052004 79 209 0.0 3.0 0.00 0.23 0.00 80 1013.5
20260901051503 79 244 0.0 1.0 0.00 0.23 0.00 80 1013.5
20260901051006 79 244 0.0 1.0 0.00 0.23 0.00 80 1013.5
20260901050503 79 244 0.0 0.0 0.00 0.23 0.00 81 1013.6
20260901050005 79 244 0.0 0.0 0.00 0.23 0.23 81 1013.6
20260901045007 79 242 0.0 0.0 0.00 0.23 0.23 81 1013.5
20260901044005 79 240 0.0 0.0 0.00 0.23 0.23 80 1013.5
20260901043504 79 240 0.0 0.0 0.00 0.23 0.23 80 1013.5
20260901043006 80 239 0.0 0.0 0.00 0.23 0.23 81 1013.6
20260901042504 80 239 0.0 1.0 0.00 0.23 0.23 81 1013.6
20260901042006 80 257 0.0 1.0 0.00 0.23 0.23 81 1013.6
20260901041504 79 257 0.0 2.0 0.00 0.23 0.23 81 1013.6
20260901041006 79 257 0.0 2.0 0.00 0.23 0.23 81 1013.7
20260901040007 80 263 0.0 1.0 0.00 0.25 0.23 81 1013.7
20260901035504 80 263 0.0 2.0 0.00 0.25 0.23 81 1013.7
20260901035004 80 258 0.0 0.0 0.00 0.25 0.23 81 1013.7
20260901034504 80 258 0.0 0.0 0.00 0.25 0.23 81 1013.7
20260901034005 80 258 0.0 0.0 0.00 0.25 0.23 81 1013.7
20260901033504 80 257 0.0 0.0 0.00 0.25 0.23 81 1013.8
20260901033008 80 277 0.0 1.0 0.00 0.25 0.23 81 1013.7
20260901032503 80 277 0.0 1.0 0.00 0.25 0.23 81 1013.8
20260901032005 80 277 0.0 0.0 0.00 0.25 0.23 81 1013.6
20260901031004 80 278 0.0 0.0 0.00 0.25 0.23 80 1013.7
20260901030506 80 278 0.0 1.0 0.00 0.25 0.23 80 1013.7
20260901030007 80 279 0.0 1.0 0.00 0.25 0.23 80 1013.6
20260901025506 80 290 0.0 1.0 0.00 0.26 0.23 80 1013.8
20260901025005 80 303 0.0 0.0 0.00 0.26 0.23 80 1013.8
20260901024504 80 303 0.0 0.0 0.00 0.26 0.23 80 1013.6
20260901024005 80 303 0.0 0.0 0.00 0.26 0.23 80 1013.8
20260901023504 80 303 0.0 0.0 0.00 0.26 0.23 80 1013.8
20260901023006 80 250 0.0 0.0 0.00 0.26 0.23 80 1014.1
20260901022005 80 250 0.0 0.0 0.00 0.26 0.23 80 1014.2
20260901021504 80 250 0.0 0.0 0.00 0.26 0.23 80 1014.1
20260901021004 80 250 0.0 0.0 0.00 0.26 0.23 80 1014.0
20260901020504 80 250 0.0 0.0 0.00 0.26 0.23 80 1014.0
20260901015504 80 250 0.0 1.0 0.00 0.26 0.23 79 1014.0
20260901015004 80 250 0.0 2.0 0.00 0.26 0.23 79 1014.0
20260901014004 80 238 0.0 0.0 0.00 0.26 0.23 80 1013.7
20260901013504 80 239 0.0 0.0 0.00 0.26 0.23 80 1013.5
20260901013006 80 239 0.0 0.0 0.00 0.26 0.23 81 1013.6
20260901012504 80 239 0.0 0.0 0.00 0.26 0.23 81 1013.6
20260901012007 80 239 0.0 0.0 0.00 0.26 0.23 81 1013.5
20260901011504 80 239 0.0 0.0 0.00 0.26 0.23 81 1013.5
20260901011004 80 239 0.0 0.0 0.00 0.26 0.23 80 1013.4
20260901010503 80 239 0.0 0.0 0.00 0.26 0.23 81 1013.4
20260901010007 80 239 0.0 0.0 0.00 0.26 0.23 80 1013.6
20260901005504 80 239 0.0 0.0 0.00 0.26 0.23 81 1013.6
20260901005003 81 239 0.0 0.0 0.00 0.26 0.23 80 1013.7
20260901004504 81 239 0.0 0.0 0.00 0.26 0.23 80 1013.7
20260901004006 81 239 0.0 1.0 0.00 0.26 0.23 80 1013.6
20260901003504 81 239 0.0 1.0 0.00 0.26 0.23 80 1013.7
20260901003004 81 238 0.0 0.0 0.01 0.26 0.23 82 1013.8
20260901002504 81 239 0.0 0.0 0.01 0.26 0.23 82 1013.6
20260901002004 81 239 0.0 0.0 0.01 0.26 0.23 82 1013.7
20260901001503 81 239 0.0 0.0 0.01 0.26 0.23 82 1013.6
20260901001006 81 239 0.0 0.0 0.01 0.26 0.23 83 1013.3
20260901000503 81 238 0.0 0.0 0.01 0.26 0.23 83 1013.3
20260901000008 81 239 0.0 0.0 0.01 0.26 0.23 82 1013.1
20260831235505 81 239 0.0 1.0 0.01 0.27 0.23 82 1013.0
20260831235004 81 239 0.0 1.0 0.01 0.27 0.23 83 1012.9
20260831234504 81 239 0.0 0.0 0.01 0.27 0.23 83 1012.4
20260831233503 83 239 0.0 0.0 0.01 0.27 0.23 79 1013.0
20260831232504 83 239 0.0 0.0 0.00 0.26 0.22 76 1013.8
20260831232004 84 239 0.0 1.0 0.00 0.26 0.22 75 1013.9
20260831231505 84 239 0.0 2.0 0.00 0.26 0.22 74 1014.0
20260831231004 84 241 0.0 2.0 0.00 0.26 0.22 73 1013.5
20260831230503 84 241 0.0 0.0 0.00 0.26 0.22 73 1013.4
20260831230005 84 241 0.0 0.0 0.00 0.27 0.22 73 1013.3
20260831225504 85 241 0.0 1.0 0.00 0.27 0.22 72 1013.2
20260831225004 85 241 0.0 1.0 0.00 0.27 0.22 71 1013.1
20260831224504 85 241 0.0 0.0 0.00 0.27 0.22 72 1013.2
20260831224004 85 241 0.0 0.0 0.00 0.27 0.22 70 1013.3
20260831223004 85 241 0.0 0.0 0.00 0.27 0.22 69 1013.2
20260831222504 85 241 0.0 0.0 0.00 0.27 0.22 69 1013.5
20260831222005 85 241 0.0 1.0 0.00 0.27 0.22 68 1013.3
20260831221504 86 241 0.0 1.0 0.00 0.27 0.22 68 1013.4
20260831221005 86 239 0.0 1.0 0.00 0.27 0.22 69 1013.3
20260831220504 86 239 0.0 2.0 0.00 0.27 0.22 67 1013.3
20260831220005 86 239 1.0 3.0 0.00 0.27 0.22 67 1013.2
20260831215504 86 241 1.0 3.0 0.00 0.27 0.22 67 1013.1
20260831215007 86 246 0.0 2.0 0.00 0.27 0.22 68 1013.0
20260831214504 86 244 0.0 2.0 0.00 0.27 0.22 68 1013.1
20260831214004 86 244 0.0 4.0 0.00 0.27 0.22 67 1013.0
20260831213004 86 264 0.0 6.0 0.00 0.27 0.22 66 1012.8
20260831212504 86 248 0.0 6.0 0.00 0.27 0.22 66 1012.7
20260831211005 87 279 0.0 0.0 0.00 0.27 0.22 67 1012.9
20260831210503 87 279 0.0 1.0 0.00 0.27 0.22 66 1013.0
20260831210006 87 279 0.0 1.0 0.00 0.27 0.22 67 1013.0
20260831205004 87 279 0.0 3.0 0.00 0.30 0.22 66 1013.1
20260831204504 86 279 1.0 3.0 0.00 0.30 0.22 68 1013.3
20260831204005 86 283 1.0 4.0 0.00 0.30 0.22 67 1013.4
20260831203504 86 238 0.0 4.0 0.00 0.30 0.22 64 1013.4
20260831203004 86 215 0.0 3.0 0.00 0.30 0.22 65 1013.4
20260831202503 87 278 1.0 3.0 0.00 0.30 0.22 65 1013.5
20260831201503 88 271 1.0 7.0 0.00 0.30 0.22 62 1013.6
20260831201004 88 274 1.0 4.0 0.00 0.30 0.22 61 1013.6
20260831195504 86 283 0.0 5.0 0.00 0.37 0.22 63 1013.2
20260831195005 86 239 0.0 3.0 0.00 0.37 0.22 65 1013.1
20260831194504 85 239 1.0 8.0 0.00 0.37 0.22 63 1013.1
20260831194004 85 281 1.0 8.0 0.00 0.37 0.22 62 1013.2
20260831193004 86 254 1.0 4.0 0.00 0.37 0.22 61 1013.6
20260831192504 87 291 1.0 8.0 0.00 0.37 0.22 60 1013.5
20260831191503 86 271 0.0 7.0 0.00 0.37 0.22 62 1013.3
20260831191004 86 167 0.0 7.0 0.00 0.37 0.22 62 1013.3
20260831190504 86 283 0.0 2.0 0.00 0.37 0.22 64 1013.4
20260831190006 86 300 0.0 4.0 0.00 0.37 0.22 62 1013.6
20260831185507 87 233 0.0 4.0 0.00 0.37 0.22 59 1013.6
20260831185004 87 236 0.0 5.0 0.00 0.37 0.22 62 1013.6
20260831184504 87 173 1.0 5.0 0.00 0.37 0.22 61 1013.7
20260831184006 87 265 1.0 5.0 0.00 0.37 0.22 63 1013.8
20260831183506 86 245 1.0 8.0 0.00 0.37 0.22 63 1013.8
20260831183006 85 288 2.0 8.0 0.00 0.37 0.22 63 1013.7
20260831182007 85 243 1.0 5.0 0.00 0.37 0.22 63 1013.6
20260831180506 84 227 0.0 2.0 0.00 0.37 0.22 64 1013.6
20260831180008 83 200 1.0 10.0 0.00 0.37 0.22 65 1013.6
20260831175505 83 186 1.0 10.0 0.00 0.37 0.22 65 1013.8
20260831174505 82 267 0.0 5.0 0.00 0.37 0.22 66 1013.9
20260831174006 82 237 0.0 4.0 0.00 0.37 0.22 68 1013.8
20260831173504 81 228 0.0 3.0 0.00 0.37 0.22 69 1013.9
20260831173004 81 257 0.0 4.0 0.00 0.37 0.22 70 1013.9
20260831172007 80 258 0.0 7.0 0.00 0.37 0.22 74 1014.0
20260831171505 80 258 0.0 7.0 0.00 0.37 0.22 72 1014.2
20260831171007 79 271 0.0 5.0 0.00 0.37 0.22 75 1014.1
20260831170506 78 259 0.0 5.0 0.00 0.37 0.22 75 1014.2
20260831165504 78 157 0.0 3.0 0.00 0.37 0.22 76 1014.3
20260831165007 77 215 0.0 3.0 0.00 0.37 0.22 76 1014.4
20260831164503 77 313 0.0 1.0 0.00 0.37 0.22 78 1014.5
20260831164005 76 288 0.0 2.0 0.00 0.37 0.22 78 1014.5
20260831163505 76 288 0.0 2.0 0.00 0.37 0.22 80 1014.6
20260831163006 75 355 0.0 0.0 0.00 0.37 0.22 83 1014.6
20260831162503 74 337 0.0 1.0 0.00 0.37 0.22 83 1014.7
20260831161503 73 148 0.0 4.0 0.00 0.37 0.22 85 1014.6
20260831160503 72 302 0.0 2.0 0.00 0.37 0.22 86 1014.7
20260831155503 71 302 0.0 1.0 0.00 0.37 0.22 89 1014.8
20260831155006 71 302 0.0 1.0 0.00 0.37 0.22 89 1014.8
20260831154504 71 302 0.0 1.0 0.00 0.37 0.22 89 1014.9
20260831154004 70 302 0.0 1.0 0.00 0.37 0.22 90 1015.1
20260831153004 70 302 0.0 1.0 0.00 0.37 0.22 90 1015.0
20260831152504 70 302 0.0 1.0 0.00 0.37 0.22 90 1015.1
20260831152004 70 302 0.0 1.0 0.00 0.37 0.22 90 1015.0
20260831151503 70 302 0.0 0.0 0.00 0.37 0.22 90 1015.2
20260831151004 70 302 0.0 0.0 0.00 0.37 0.22 90 1015.3
20260831150004 70 302 0.0 0.0 0.00 0.37 0.22 90 1015.5
20260831145503 70 302 0.0 1.0 0.00 0.37 0.22 91 1015.4
20260831145004 70 302 0.0 1.0 0.01 0.37 0.22 91 1015.4
20260831144504 70 302 0.0 1.0 0.01 0.37 0.22 91 1015.2
20260831144004 70 302 0.0 1.0 0.02 0.37 0.22 91 1015.1
20260831143504 70 302 0.0 0.0 0.05 0.37 0.22 91 1014.8
20260831143004 70 302 0.0 0.0 0.06 0.37 0.22 91 1015.0
20260831142504 69 302 0.0 0.0 0.06 0.37 0.22 91 1015.0
20260831142004 69 302 0.0 0.0 0.07 0.37 0.22 91 1015.2
20260831141504 69 302 0.0 0.0 0.07 0.37 0.22 91 1015.3
20260831141004 69 302 0.0 0.0 0.07 0.37 0.22 91 1015.3
20260831140504 69 302 0.0 0.0 0.07 0.37 0.22 91 1015.2
20260831135503 69 302 0.0 1.0 0.09 0.40 0.22 91 1015.3
20260831135006 69 302 0.0 0.0 0.11 0.39 0.21 91 1015.3
20260831134503 69 302 0.0 0.0 0.18 0.39 0.21 91 1015.3